Location: Enborne
(51.3833°N, 1.3667°W)
Time: 13:40:50
(UTC+00:00)

Cosmos 1844 Rocket - Pass Details

Date: 21 January 2021
Orbit: 826 x 843 km, 71.0° (Epoch: 05 March)

Event Time Altitude Azimuth Distance (km) Brightness Sun altitude
Rises 17:51:17 0° 178° (S) 3,388 6.1 -11.4°
Reaches altitude 10° 17:53:54 10° 170° (S) 2,457 5.2 -11.8°
Maximum altitude 17:58:56 34° 107° (ESE) 1,354 3.4 -12.6°
Enters shadow 18:02:51 15° 50° (NE) 2,104 4.2 -13.2°
